Location: Old Broadwell Mill Observatory
(33.8015°N, 85.8137°W)
Time: 05:24:35
(UTC-05:00)

Amateur Radio Satellites - All Passes

Search period start: 04 September 2015 04:54
Search period end: 05 September 2015 04:54
Location: Old Broadwell Mill Observatory, 33.8015°N, 85.8137°W

Satellite Date Start Highest point End Downlink Frequencies (MHz)
Time Altitude Azimuth
AO-7 04 Sep 05:00:53 05:09:13 85° 288° (WNW) 05:17:30 29.400- 29.500
VERMONT LUNAR 04 Sep 05:17:53 05:20:25 24° 9° (N) 05:22:57 437.305
JAS-2 04 Sep 05:27:47 05:31:23 15° 299° (WNW) 05:34:27 435.910
PHONESAT 2.4 04 Sep 05:32:19 05:35:27 32° 348° (NNW) 05:38:34 2401.200-2431.200
CUTE-I 04 Sep 05:46:30 05:48:38 13° 90° (E) 05:51:08 437.470
O/OREOS (USA 219) 04 Sep 05:49:49 05:52:19 14° 259° (W) 05:54:34 437.305
STRAND 1 04 Sep 06:02:16 06:05:47 20° 68° (ENE) 06:09:29 437.568
CUBESAT XI-V 04 Sep 06:20:24 06:24:58 67° 259° (W) 06:29:33 437.345
Cubesat XI-IV 04 Sep 06:40:13 06:45:21 48° 99° (E) 06:50:30 437.490
PRISM 04 Sep 06:46:54 06:50:35 34° 73° (ENE) 06:54:18 437.425
BRITE-PL 04 Sep 06:50:36 06:51:57 11° 88° (E) 06:53:46 437.365/2234.400
VERMONT LUNAR 04 Sep 06:54:06 06:57:04 86° 25° (NNE) 07:00:02 437.305
Cosmos 2491 04 Sep 06:54:23 06:55:04 10° 80° (E) 06:56:41 435.465 / 435.565
AO-7 04 Sep 06:56:12 07:01:01 16° 304° (WNW) 07:05:21 29.400- 29.500
ISS 04 Sep 06:59:18 07:02:32 75° 135° (SE) 07:05:48 145.825
PHONESAT 2.4 04 Sep 07:10:55 07:13:51 26° 5° (N) 07:16:47 2401.200-2431.200
AIST 1 04 Sep 07:22:02 07:26:02 44° 93° (E) 07:30:06
CUTE-I 04 Sep 07:23:56 07:29:13 63° 286° (WNW) 07:34:28 437.470
STRAND 1 04 Sep 07:39:57 07:44:44 40° 261° (W) 07:49:31 437.568
YUBILEINY 04 Sep 07:58:28 08:07:15 67° 81° (E) 08:15:58 435.215
CANX-2 04 Sep 08:03:02 08:03:48 11° 90° (E) 08:04:53 2200.000
HO-68 04 Sep 08:05:06 08:10:01 20° 92° (E) 08:15:15 435.675
SEEDS 04 Sep 08:17:27 08:18:24 11° 90° (E) 08:19:38 437.485
Cubesat XI-IV 04 Sep 08:21:29 08:25:07 18° 293° (WNW) 08:28:34 437.490
PRISM 04 Sep 08:23:48 08:26:09 14° 267° (W) 08:28:18 437.425
BRITE-PL 04 Sep 08:25:26 08:31:05 81° 284° (WNW) 08:36:47 437.365/2234.400
DOVE 4 04 Sep 08:30:33 08:35:30 40° 96° (E) 08:40:21 437.250
VERMONT LUNAR 04 Sep 08:31:50 08:33:10 12° 217° (SW) 08:34:26 437.305
COMPASS 1 04 Sep 08:32:11 08:33:57 13° 91° (E) 08:35:58 437.405
GOMX 1 04 Sep 08:35:10 08:40:41 76° 100° (E) 08:46:07 467.674
ISS 04 Sep 08:37:47 08:39:19 13° 332° (NNW) 08:40:47 145.825
AAUSAT CUBESAT 2 04 Sep 08:38:58 08:40:44 13° 91° (E) 08:42:44 437.432
Cosmos 2491 04 Sep 08:42:06 08:50:46 76° 94° (E) 08:59:28 435.465 / 435.565
PHONESAT 2.4 04 Sep 08:48:44 08:52:07 59° 22° (NNE) 08:55:28 2401.200-2431.200
CINEMA 3 04 Sep 08:48:51 08:52:47 24° 93° (E) 08:56:41 145.822/145.860
AIST 1 04 Sep 09:02:31 09:04:01 11° 289° (WNW) 09:05:15
Cosmos 2504 04 Sep 09:15:12 09:21:44 26° 70° (ENE) 09:28:13 435.465 / 435.565
CUTE 1.7 + AOD 2 04 Sep 09:21:13 09:25:27 84° 283° (WNW) 09:29:38 437.475
SO-50 04 Sep 09:25:26 09:30:21 71° 60° (ENE) 09:35:07 436.795
ANTELSAT 04 Sep 09:29:00 09:31:49 17° 69° (ENE) 09:34:51 437.575/2403.000
CUSAT 1 04 Sep 09:32:47 09:39:11 26° 69° (ENE) 09:45:51 437.405
ZACube-1 04 Sep 09:34:05 09:36:47 16° 92° (E) 09:39:37 437.345
CANX-2 04 Sep 09:36:00 09:40:04 48° 285° (WNW) 09:44:05 2200.000
PCSat 04 Sep 09:37:25 09:41:32 22° 53° (NE) 09:45:47 145.827
FUNcube-1 04 Sep 09:37:32 09:40:23 17° 92° (E) 09:43:20 145.935
UWE-3 04 Sep 09:48:41 09:52:46 34° 96° (E) 09:56:47 435.000/436.395/437.385
CUBEBUG 2 04 Sep 09:49:42 09:54:09 47° 98° (E) 09:58:27 437.445
SEEDS 04 Sep 09:50:29 09:54:30 46° 285° (WNW) 09:58:28 437.485
HO-68 04 Sep 09:51:11 09:58:18 63° 288° (WNW) 10:05:20 435.675
YUBILEINY 04 Sep 09:57:01 10:03:24 22° 276° (W) 10:09:19 435.215
AUBIESAT-1 04 Sep 10:01:52 10:06:06 34° 68° (ENE) 10:10:18 437.475
COMPASS 1 04 Sep 10:05:58 10:09:50 38° 286° (WNW) 10:13:40 437.405
DOVE 4 04 Sep 10:08:55 10:12:58 22° 291° (WNW) 10:16:47 437.250
DELFI C3 04 Sep 10:08:57 10:12:44 42° 99° (E) 10:16:31 145.870
M-CUBED/EXP-1 PRIME 04 Sep 10:10:37 10:15:15 50° 70° (ENE) 10:19:49 437.505
AAUSAT CUBESAT 2 04 Sep 10:12:42 10:16:33 38° 286° (WNW) 10:20:21 437.432
GOMX 1 04 Sep 10:15:45 10:18:12 13° 294° (WNW) 10:20:18 467.674
Oscar 11 04 Sep 10:17:04 10:21:24 90° 201° (SSW) 10:25:41 145.826/435.025
UNISAT 6 04 Sep 10:17:53 10:22:28 57° 75° (ENE) 10:27:07 437.425
CINEMA 3 04 Sep 10:25:40 10:29:57 29° 289° (WNW) 10:34:03 145.822/145.860
PHONESAT 2.4 04 Sep 10:27:02 10:29:49 23° 215° (SW) 10:32:33 2401.200-2431.200
DANDE 04 Sep 10:27:58 10:35:40 47° 76° (ENE) 10:43:49 436.750
BUGSAT 1 04 Sep 10:32:08 10:34:10 14° 69° (ENE) 10:36:24 437.445
DUCHIFAT 1 04 Sep 10:40:08 10:43:49 30° 73° (ENE) 10:47:34 145.980
POLYITAN 1 04 Sep 10:42:07 10:45:58 34° 73° (ENE) 10:49:54 437.675
Cosmos 2491 04 Sep 10:42:38 10:48:40 19° 294° (WNW) 10:54:13 435.465 / 435.565
POPSAT HIP 1 04 Sep 10:43:08 10:46:57 34° 73° (ENE) 10:50:52 437.405
TIGRISAT 04 Sep 10:44:44 10:49:24 74° 260° (W) 10:54:08 435.000
AISAT 04 Sep 10:54:48 10:57:47 18° 93° (E) 11:00:55 437.250
ESTCUBE 1 04 Sep 10:56:52 10:58:54 13° 91° (E) 11:01:13 437.505/2401.250
NANOSAT C BR1 04 Sep 10:58:39 11:02:46 53° 75° (ENE) 11:06:57 145.865
QB50P2 04 Sep 11:00:46 11:04:57 60° 76° (ENE) 11:09:11 145.880/145.840
ANTELSAT 04 Sep 11:03:48 11:08:15 42° 262° (W) 11:12:44 437.575/2403.000
Cosmos 2504 04 Sep 11:06:24 11:14:29 55° 269° (W) 11:21:58 435.465 / 435.565
ZACube-1 04 Sep 11:09:15 11:13:18 34° 287° (WNW) 11:17:11 437.345
SO-50 04 Sep 11:09:35 11:10:21 10° 252° (WSW) 11:10:45 436.795
FUNcube-1 04 Sep 11:12:50 11:16:49 32° 287° (WNW) 11:20:38 145.935
QB50P1 04 Sep 11:13:54 11:18:08 85° 77° (ENE) 11:22:26 145.935-145.965
CUSAT 1 04 Sep 11:14:13 11:22:17 64° 266° (W) 11:30:07 437.405
PCSat 04 Sep 11:20:02 11:25:11 44° 249° (WSW) 11:30:16 145.827
VELOX 1 04 Sep 11:20:57 11:25:01 34° 98° (E) 11:29:07 145.980
HUMSAT D 04 Sep 11:21:12 11:25:23 68° 284° (WNW) 11:29:29 437.325/437.525
UWE-3 04 Sep 11:25:56 11:29:03 18° 291° (WNW) 11:31:57 435.000/436.395/437.385
CUBEBUG 2 04 Sep 11:27:59 11:30:25 14° 292° (WNW) 11:32:35 437.445
JUGNU 04 Sep 11:32:54 11:36:46 18° 172° (S) 11:40:40 437.505
AUBIESAT-1 04 Sep 11:37:06 11:40:48 22° 261° (W) 11:44:19 437.475
DELFI C3 04 Sep 11:45:57 11:47:27 12° 291° (WNW) 11:48:42 145.870
M-CUBED/EXP-1 PRIME 04 Sep 11:47:26 11:50:14 15° 264° (W) 11:52:47 437.505
DX 1 04 Sep 11:51:48 11:56:08 59° 285° (WNW) 12:00:26 434.975-435.025
50 SAT 04 Sep 11:54:08 11:57:58 65° 284° (WNW) 12:01:43 437.505
UNISAT 6 04 Sep 11:58:00 11:59:40 11° 270° (W) 12:01:00 437.425
UKube-1 04 Sep 11:58:05 12:02:21 55° 286° (WNW) 12:06:35 .
SPROUT 04 Sep 11:59:17 12:01:53 16° 92° (E) 12:04:40 437.525
BUGSAT 1 04 Sep 12:05:32 12:09:19 37° 262° (W) 12:13:09 437.445
DANDE 04 Sep 12:11:21 12:18:41 36° 269° (W) 12:26:05 436.750
DUCHIFAT 1 04 Sep 12:16:44 12:19:41 18° 267° (W) 12:22:29 145.980
CUBEBUG 1 04 Sep 12:18:04 12:22:31 80° 285° (WNW) 12:26:57 437.445
POLYITAN 1 04 Sep 12:19:19 12:22:00 16° 268° (W) 12:24:31 437.675
POPSAT HIP 1 04 Sep 12:20:17 12:22:58 16° 268° (W) 12:25:27 437.405
AISAT 04 Sep 12:30:23 12:34:27 33° 287° (WNW) 12:38:27 437.250
ESTCUBE 1 04 Sep 12:31:44 12:36:03 45° 286° (WNW) 12:40:20 437.505/2401.250
TISAT 1 04 Sep 12:46:22 12:50:09 31° 97° (E) 12:53:58 437.305
GONETS M04 04 Sep 12:46:55 12:54:19 31° 72° (ENE) 13:01:58
SRMSAT 04 Sep 12:50:51 12:54:11 15° 169° (S) 12:57:34 437.500
VELOX 1 04 Sep 12:58:14 13:01:19 18° 291° (WNW) 13:04:15 145.980
Oscar 19 04 Sep 13:00:15 13:05:08 45° 73° (ENE) 13:10:05 437.125/150
BEESAT 3 04 Sep 13:09:36 13:13:05 29° 113° (ESE) 13:16:39 437.485
JUGNU 04 Sep 13:20:52 13:25:10 21° 182° (S) 13:29:27 437.505
ITUPSAT 1 04 Sep 13:23:26 13:24:59 12° 90° (E) 13:26:51 437.325
BEESAT 2 04 Sep 13:27:33 13:31:14 34° 114° (ESE) 13:35:00 435.950
ISS 04 Sep 13:30:41 13:32:47 16° 31° (NNE) 13:34:57 145.825
SPROUT 04 Sep 13:34:08 13:38:06 34° 287° (WNW) 13:42:00 437.525
JAS-2 04 Sep 13:47:03 13:53:11 28° 66° (ENE) 13:59:35 435.910
BEESAT 04 Sep 13:51:59 13:55:56 26° 96° (E) 13:59:57 436.000
AO-7 04 Sep 14:06:36 14:11:31 18° 57° (ENE) 14:16:52 29.400- 29.500
ITAMSAT 1 04 Sep 14:07:59 14:12:57 50° 73° (ENE) 14:17:58 435.822/435.867
Gurwin Techsat 1B 04 Sep 14:13:29 14:18:45 72° 76° (ENE) 14:24:04 435.225
SWISSCUBE 04 Sep 14:17:58 14:22:40 58° 100° (E) 14:27:22 437.505
TISAT 1 04 Sep 14:22:44 14:25:42 18° 290° (WNW) 14:28:31 437.305
AIST 2 04 Sep 14:31:45 14:35:32 33° 113° (ESE) 14:39:23 435.215
SRMSAT 04 Sep 14:38:26 14:42:42 20° 178° (S) 14:46:58 437.500
Oscar 19 04 Sep 14:41:17 14:44:45 17° 268° (W) 14:48:02 437.125/150
Cosmos 2499 04 Sep 14:41:27 14:49:25 44° 76° (ENE) 14:56:52 435.465 / 435.565
GONETS M04 04 Sep 14:43:05 14:51:30 50° 270° (W) 14:59:51
BEESAT 3 04 Sep 14:47:57 14:51:02 20° 308° (NW) 14:54:03 437.485
RS-15 04 Sep 14:56:04 15:06:28 56° 112° (ESE) 15:17:19 29.354- 29.394
ITUPSAT 1 04 Sep 14:58:37 15:03:17 56° 286° (WNW) 15:07:56 437.325
STARS 04 Sep 15:06:00 15:08:05 13° 92° (E) 15:10:25 437.465
ISS 04 Sep 15:06:16 15:09:24 46° 226° (SW) 15:12:30 145.825
BEESAT 2 04 Sep 15:06:32 15:09:25 18° 309° (NW) 15:12:11 435.950
JUGNU 04 Sep 15:10:07 15:13:32 16° 191° (SSW) 15:16:52 437.505
BEESAT 04 Sep 15:29:45 15:33:41 26° 290° (WNW) 15:37:32 436.000
JAS-2 04 Sep 15:30:11 15:37:44 58° 261° (W) 15:45:28 435.910
KKS-1 04 Sep 15:33:15 15:37:38 52° 100° (E) 15:42:01 437.445
HORYU 2 04 Sep 15:39:29 15:43:48 49° 74° (ENE) 15:48:10 437.375
ITAMSAT 1 04 Sep 15:49:39 15:52:48 15° 268° (W) 15:55:41 435.822/435.867
AO-7 04 Sep 15:55:03 16:03:25 88° 251° (WSW) 16:11:48 29.400- 29.500
Gurwin Techsat 1B 04 Sep 15:57:54 15:59:21 11° 271° (W) 16:00:24 435.225
SWISSCUBE 04 Sep 15:57:59 16:00:05 13° 293° (WNW) 16:01:56 437.505
AIST 2 04 Sep 16:11:00 16:14:12 20° 309° (NW) 16:17:17 435.215
MOZHAYETS 4 04 Sep 16:16:16 16:19:38 21° 94° (E) 16:23:07
SRMSAT 04 Sep 16:27:23 16:31:14 18° 188° (S) 16:35:02 437.500
Cosmos 2499 04 Sep 16:35:02 16:42:21 33° 273° (W) 16:49:00 435.465 / 435.565
STARS 04 Sep 16:40:34 16:44:47 43° 286° (WNW) 16:48:57 437.465
CUTE-I 04 Sep 17:04:33 17:07:30 16° 66° (ENE) 17:10:42 437.470
RS-15 04 Sep 17:09:14 17:19:20 39° 313° (NW) 17:29:38 29.354- 29.394
KKS-1 04 Sep 17:11:56 17:13:52 12° 293° (WNW) 17:15:33 437.445
HORYU 2 04 Sep 17:18:50 17:20:46 12° 269° (W) 17:22:25 437.375
MOZHAYETS 4 04 Sep 17:52:55 17:56:53 29° 288° (WNW) 18:00:47
AO-7 04 Sep 17:53:02 17:57:23 14° 271° (W) 18:01:01 29.400- 29.500
Cubesat XI-IV 04 Sep 17:58:21 18:03:31 54° 74° (ENE) 18:08:42 437.490
O/OREOS (USA 219) 04 Sep 18:16:48 18:21:20 75° 290° (WNW) 18:25:54 437.305
CUBESAT XI-V 04 Sep 18:21:00 18:25:22 40° 98° (E) 18:29:47 437.345
HO-68 04 Sep 18:35:01 18:35:13 10° 57° (ENE) 18:36:00 435.675
CUTE-I 04 Sep 18:41:58 18:47:10 56° 260° (W) 18:52:23 437.470
Cosmos 2491 04 Sep 18:57:59 19:05:22 31° 72° (ENE) 19:12:59 435.465 / 435.565
YUBILEINY 04 Sep 19:03:34 19:06:50 13° 81° (E) 19:10:54 435.215
AIST 1 04 Sep 19:10:10 19:14:30 70° 265° (W) 19:18:51
RS-15 04 Sep 19:31:52 19:36:34 13° 345° (NNW) 19:40:57 29.354- 29.394
DOVE 4 04 Sep 19:32:37 19:36:20 25° 70° (ENE) 19:40:21 437.250
BRITE-PL 04 Sep 19:32:43 19:37:05 75° 77° (ENE) 19:41:50 437.365/2234.400
GOMX 1 04 Sep 19:39:30 19:43:52 49° 74° (ENE) 19:48:36 467.674
Cubesat XI-IV 04 Sep 19:40:53 19:44:01 15° 269° (W) 19:46:51 437.490
CINEMA 3 04 Sep 19:47:36 19:50:12 15° 67° (ENE) 19:53:04 145.822/145.860
STRAND 1 04 Sep 19:53:59 19:59:06 87° 286° (WNW) 20:04:14 437.568
CUBESAT XI-V 04 Sep 19:59:30 20:02:31 17° 291° (WNW) 20:05:22 437.345
PRISM 04 Sep 20:07:31 20:11:39 80° 284° (WNW) 20:15:47 437.425
CUTE 1.7 + AOD 2 04 Sep 20:10:03 20:14:03 40° 74° (ENE) 20:18:04 437.475
HO-68 04 Sep 20:14:47 20:21:51 67° 72° (ENE) 20:29:00 435.675
CANX-2 04 Sep 20:24:28 20:28:44 70° 77° (ENE) 20:33:00 2200.000
SEEDS 04 Sep 20:38:01 20:42:15 71° 77° (ENE) 20:46:29 437.485
UWE-3 04 Sep 20:42:24 20:45:36 19° 70° (ENE) 20:48:59 435.000/436.395/437.385
CUBEBUG 2 04 Sep 20:44:02 20:47:52 26° 71° (ENE) 20:51:52 437.445
COMPASS 1 04 Sep 20:52:32 20:56:44 81° 78° (ENE) 21:00:57 437.405
DELFI C3 04 Sep 20:53:17 20:55:42 16° 70° (ENE) 20:58:16 145.870
YUBILEINY 04 Sep 20:53:49 21:02:37 86° 94° (E) 21:11:29 435.215
Cosmos 2491 04 Sep 20:54:11 21:02:34 50° 269° (W) 21:10:51 435.465 / 435.565
AAUSAT CUBESAT 2 04 Sep 20:58:48 21:02:59 80° 77° (ENE) 21:07:11 437.432
Oscar 11 04 Sep 21:07:53 21:11:57 41° 74° (ENE) 21:16:04 145.826/435.025
DOVE 4 04 Sep 21:09:57 21:13:58 28° 266° (W) 21:18:09 437.250
GOMX 1 04 Sep 21:20:14 21:22:29 13° 272° (W) 21:24:29 467.674
CINEMA 3 04 Sep 21:22:23 21:26:57 49° 262° (W) 21:31:43 145.822/145.860
Cosmos 2504 04 Sep 21:41:08 21:46:39 21° 83° (E) 21:52:46 435.465 / 435.565
CUTE 1.7 + AOD 2 04 Sep 21:47:56 21:50:10 13° 269° (W) 21:52:10 437.475
RS-15 04 Sep 21:50:18 21:56:12 15° 22° (NNE) 22:02:44 29.354- 29.394
AISAT 04 Sep 21:51:22 21:51:53 10° 66° (ENE) 21:52:40 437.250
ZACube-1 04 Sep 22:00:13 22:04:46 74° 259° (W) 22:09:23 437.345
FUNcube-1 04 Sep 22:03:32 22:08:04 70° 260° (W) 22:12:39 145.935
HO-68 04 Sep 22:05:18 22:10:13 19° 268° (W) 22:14:45 435.675
HUMSAT D 04 Sep 22:08:33 22:12:41 49° 75° (ENE) 22:16:54 437.325/437.525
UNISAT 6 04 Sep 22:15:23 22:18:00 16° 92° (E) 22:20:47 437.425
VELOX 1 04 Sep 22:15:30 22:18:35 20° 70° (ENE) 22:21:49 145.980
UWE-3 04 Sep 22:17:39 22:21:53 35° 263° (W) 22:26:08 435.000/436.395/437.385
CUBEBUG 2 04 Sep 22:20:34 22:24:28 26° 266° (W) 22:28:22 437.445
DELFI C3 04 Sep 22:26:55 22:30:32 31° 263° (W) 22:34:07 145.870
50 SAT 04 Sep 22:33:28 22:37:05 36° 74° (ENE) 22:40:44 437.505
CUSAT 1 04 Sep 22:36:41 22:39:12 16° 83° (E) 22:42:21 437.405
TIGRISAT 04 Sep 22:41:01 22:44:58 30° 96° (E) 22:48:52 435.000
DX 1 04 Sep 22:43:13 22:47:30 70° 77° (ENE) 22:51:51 434.975-435.025
Oscar 11 04 Sep 22:46:05 22:48:22 13° 269° (W) 22:50:25 145.826/435.025
UKube-1 04 Sep 22:48:38 22:52:56 73° 75° (ENE) 22:57:14 .
NANOSAT C BR1 04 Sep 22:49:32 22:50:57 12° 91° (E) 22:52:38 145.865
QB50P2 04 Sep 22:51:38 22:53:39 13° 91° (E) 22:55:55 145.880/145.840
YUBILEINY 04 Sep 22:55:22 23:00:46 16° 296° (WNW) 23:05:36 435.215
ANTELSAT 04 Sep 22:59:43 23:04:07 54° 99° (E) 23:08:25 437.575/2403.000
QB50P1 04 Sep 23:03:50 23:06:48 19° 94° (E) 23:09:53 145.935-145.965
BEESAT 3 04 Sep 23:08:38 23:12:39 73° 61° (ENE) 23:16:35 437.485
CUBEBUG 1 04 Sep 23:10:14 23:14:23 50° 75° (ENE) 23:18:37 437.445
AUBIESAT-1 04 Sep 23:21:05 23:24:31 38° 102° (ESE) 23:27:46 437.475
AISAT 04 Sep 23:23:37 23:27:59 61° 260° (W) 23:32:22 437.250
ESTCUBE 1 04 Sep 23:27:03 23:31:32 81° 259° (W) 23:36:02 437.505/2401.250
BEESAT 2 04 Sep 23:27:30 23:31:33 88° 60° (ENE) 23:35:32 435.950
Cosmos 2504 04 Sep 23:30:01 23:38:07 68° 279° (W) 23:46:40 435.465 / 435.565
M-CUBED/EXP-1 PRIME 04 Sep 23:30:45 23:34:29 68° 105° (ESE) 23:37:56 437.505
SO-50 04 Sep 23:35:41 23:40:18 58° 116° (ESE) 23:45:07 436.795
TISAT 1 04 Sep 23:35:57 23:38:13 15° 69° (ENE) 23:40:41 437.305
DANDE 04 Sep 23:36:31 23:39:52 42° 92° (E) 23:44:20 436.750
HUMSAT D 04 Sep 23:47:14 23:48:45 11° 270° (W) 23:49:58 437.325/437.525
UNISAT 6 04 Sep 23:50:49 23:54:59 37° 287° (WNW) 23:58:59 437.425
VELOX 1 04 Sep 23:51:04 23:54:57 30° 263° (W) 23:58:49 145.980
BUGSAT 1 04 Sep 23:51:12 23:55:13 40° 98° (E) 23:59:14 437.445
RS-15 05 Sep 00:01:31 00:12:50 48° 51° (NE) 00:24:36 29.354- 29.394
DUCHIFAT 1 05 Sep 00:03:34 00:07:52 83° 281° (WNW) 00:12:07 145.980
POLYITAN 1 05 Sep 00:06:35 00:10:53 71° 284° (WNW) 00:15:07 437.675
POPSAT HIP 1 05 Sep 00:07:18 00:11:36 71° 284° (WNW) 00:15:52 437.405
50 SAT 05 Sep 00:09:53 00:11:46 13° 268° (W) 00:13:26 437.505
PCSat 05 Sep 00:14:29 00:19:30 42° 111° (ESE) 00:24:36 145.827
CUSAT 1 05 Sep 00:17:26 00:21:11 33° 289° (WNW) 00:26:00 437.405
TIGRISAT 05 Sep 00:18:14 00:21:32 20° 290° (WNW) 00:24:37 435.000
NANOSAT C BR1 05 Sep 00:22:58 00:27:05 45° 286° (WNW) 00:31:08 145.865
SPROUT 05 Sep 00:23:40 00:27:57 76° 259° (W) 00:32:17 437.525
QB50P2 05 Sep 00:25:44 00:29:46 40° 286° (WNW) 00:33:45 145.880/145.840
AIST 2 05 Sep 00:34:55 00:39:05 88° 60° (ENE) 00:43:11 435.215
ANTELSAT 05 Sep 00:38:45 00:40:26 12° 293° (WNW) 00:41:51 437.575/2403.000
QB50P1 05 Sep 00:38:56 00:42:41 29° 288° (WNW) 00:46:22 145.935-145.965
CUBEBUG 1 05 Sep 00:49:50 00:51:06 11° 270° (W) 00:52:05 437.445
BEESAT 05 Sep 00:55:14 00:58:39 21° 69° (ENE) 01:02:12 436.000
VERMONT LUNAR 05 Sep 00:56:53 00:59:49 50° 151° (SSE) 01:02:45 437.305
AUBIESAT-1 05 Sep 00:57:53 00:58:52 11° 298° (WNW) 00:59:38 437.475
TISAT 1 05 Sep 01:09:46 01:13:41 37° 262° (W) 01:17:37 437.305
Oscar 19 05 Sep 01:16:27 01:20:22 22° 94° (E) 01:24:24 437.125/150
SO-50 05 Sep 01:18:11 01:21:17 16° 313° (NW) 01:24:16 436.795
SWISSCUBE 05 Sep 01:20:44 01:25:11 42° 73° (ENE) 01:29:41 437.505
DANDE 05 Sep 01:23:13 01:23:52 10° 300° (WNW) 01:24:13 436.750
BUGSAT 1 05 Sep 01:27:57 01:30:21 14° 291° (WNW) 01:32:34 437.445
Cosmos 2504 05 Sep 01:31:26 01:32:22 10° 300° (WNW) 01:32:27 435.465 / 435.565
GONETS M04 05 Sep 01:42:55 01:50:39 40° 89° (E) 01:58:36
PCSat 05 Sep 01:58:47 02:03:07 23° 307° (NW) 02:07:21 145.827
ITUPSAT 1 05 Sep 02:01:14 02:06:01 77° 258° (WSW) 02:10:48 437.325
RS-15 05 Sep 02:14:08 02:25:26 48° 250° (WSW) 02:36:47 29.354- 29.394
ITAMSAT 1 05 Sep 02:25:18 02:29:27 25° 95° (E) 02:33:43 435.822/435.867
KKS-1 05 Sep 02:27:50 02:31:40 30° 72° (ENE) 02:35:34 437.445
BEESAT 05 Sep 02:31:56 02:36:18 34° 263° (W) 02:40:35 436.000
VERMONT LUNAR 05 Sep 02:33:34 02:36:18 31° 346° (NNW) 02:39:02 437.305
Gurwin Techsat 1B 05 Sep 02:33:55 02:38:52 39° 98° (E) 02:43:49 435.225
JAS-2 05 Sep 02:46:34 02:51:44 26° 91° (E) 02:56:36 435.910
Oscar 19 05 Sep 02:55:05 02:59:49 36° 289° (WNW) 03:04:29 437.125/150
SWISSCUBE 05 Sep 03:00:17 03:03:16 16° 268° (W) 03:06:03 437.505
PHONESAT 2.4 05 Sep 03:08:15 03:11:33 47° 150° (SSE) 03:14:52 2401.200-2431.200
Cosmos 2499 05 Sep 03:11:55 03:19:31 40° 88° (E) 03:27:37 435.465 / 435.565
MOZHAYETS 4 05 Sep 03:15:46 03:17:53 14° 68° (ENE) 03:20:15
STARS 05 Sep 03:32:58 03:37:23 82° 256° (WSW) 03:41:51 437.465
HORYU 2 05 Sep 03:36:29 03:38:19 13° 91° (E) 03:40:25 437.375
GONETS M04 05 Sep 03:39:33 03:47:31 38° 285° (WNW) 03:55:23
AO-7 05 Sep 04:01:32 04:09:07 40° 99° (E) 04:16:49 29.400- 29.500
ITAMSAT 1 05 Sep 04:04:22 04:08:59 32° 289° (WNW) 04:13:32 435.822/435.867
KKS-1 05 Sep 04:04:58 04:08:19 20° 266° (W) 04:11:34 437.445
VERMONT LUNAR 05 Sep 04:10:47 04:13:11 21° 2° (N) 04:15:35 437.305
Gurwin Techsat 1B 05 Sep 04:14:34 04:18:37 22° 292° (WNW) 04:22:30 435.225
O/OREOS (USA 219) 05 Sep 04:30:43 04:35:19 76° 252° (WSW) 04:39:52 437.305
JAS-2 05 Sep 04:30:56 04:37:05 40° 291° (WNW) 04:42:29 435.910
PHONESAT 2.4 05 Sep 04:46:15 04:49:29 38° 345° (NNW) 04:52:43 2401.200-2431.200
